DW5533 Weather Reports


Display with metric or nautical units.
time (UTC)temp
F
wind
direction
speed
MPH
gust
MPH
rain 1hr
in
rain 24hr
in
rain mn
in
humidity
%
barometer
mb
20260509103026 31 62 0.0 0.0 0.00 0.00 0.00 92 1013.1
20260509101525 31 62 0.0 0.0 0.00 0.00 0.00 92 1013.0
20260509100024 31 62 0.0 0.0 0.00 0.00 0.00 91 1013.1
20260509094522 31 62 0.0 0.0 0.00 0.00 0.00 91 1012.8
20260509093022 31 62 0.0 0.0 0.00 0.00 0.00 91 1012.4
20260509091519 31 62 0.0 0.0 0.00 0.00 0.00 91 1012.4
20260509090018 31 62 0.0 0.0 0.00 0.00 0.00 90 1012.3
20260509084523 31 62 0.0 0.0 0.00 0.00 0.00 91 1012.1
20260509083017 31 62 0.0 0.0 0.00 0.00 0.00 90 1012.0
20260509081516 31 62 0.0 0.0 0.00 0.00 0.00 90 1012.1
20260509080015 31 62 0.0 0.0 0.00 0.00 0.00 90 1012.2
20260509074514 31 62 0.0 0.0 0.00 0.00 0.00 90 1012.3
20260509073012 32 62 0.0 0.0 0.00 0.00 0.00 89 1012.3
20260509071511 32 62 0.0 0.0 0.00 0.00 0.00 88 1012.3
20260509070010 32 62 0.0 0.0 0.00 0.00 0.00 88 1012.3
20260509064507 32 62 0.0 0.0 0.00 0.00 0.00 87 1012.2
20260509063006 33 62 0.0 0.0 0.00 0.00 0.00 86 1012.3
20260509061505 33 62 0.0 0.0 0.00 0.00 0.00 86 1012.2
20260509060003 33 62 0.0 0.0 0.00 0.00 0.00 86 1012.1
20260509054502 33 62 0.0 0.0 0.00 0.00 0.00 86 1012.0
20260509053105 34 62 0.0 0.0 0.00 0.00 0.00 85 1011.9
20260509051604 34 62 0.0 0.0 0.00 0.00 0.00 84 1011.9
20260509050056 34 62 0.0 0.0 0.00 0.00 0.00 83 1011.9
20260509044553 35 62 0.0 0.0 0.00 0.00 0.00 83 1011.9
20260509043059 35 62 0.0 0.0 0.00 0.00 0.00 82 1011.9
20260509041550 36 62 0.0 0.0 0.00 0.00 0.00 82 1012.0
20260509040048 36 62 0.0 0.0 0.00 0.00 0.00 79 1011.8
20260509034550 36 62 0.0 0.0 0.00 0.00 0.00 81 1011.7
20260509033044 36 62 0.0 0.0 0.00 0.00 0.00 78 1011.4
20260509031556 37 62 0.0 0.0 0.00 0.00 0.00 78 1011.3
20260509030041 37 62 0.0 0.0 0.00 0.00 0.00 76 1011.2
20260509024541 38 62 0.0 0.0 0.00 0.00 0.00 75 1011.2
20260509023039 38 62 0.0 0.0 0.00 0.00 0.00 75 1011.1
20260509021537 39 62 0.0 0.0 0.00 0.00 0.00 73 1011.0
20260509020034 39 62 0.0 0.0 0.00 0.00 0.00 75 1010.9
20260509014533 39 62 0.0 0.0 0.00 0.00 0.00 75 1010.7
20260509013040 39 62 0.0 0.0 0.00 0.00 0.00 73 1010.5
20260509011530 40 62 0.0 0.0 0.00 0.00 0.00 74 1010.3
20260509010029 41 62 0.0 0.0 0.00 0.00 0.00 73 1010.1
20260509004533 42 62 0.0 0.0 0.00 0.00 0.00 70 1010.0
20260509003024 43 62 0.0 0.0 0.00 0.00 0.00 65 1009.8
20260509001522 45 62 0.0 0.0 0.00 0.00 0.00 59 1009.6
20260509000021 45 62 0.0 0.0 0.00 0.00 0.00 54 1009.5
20260508234521 46 62 0.0 0.0 0.00 0.00 0.00 57 1009.4
20260508233019 46 62 0.0 1.0 0.00 0.00 0.00 49 1009.1
20260508231518 46 59 0.0 0.0 0.00 0.00 0.00 51 1009.1
20260508230017 47 80 0.0 0.0 0.00 0.00 0.00 51 1009.1
20260508224516 48 80 0.0 0.0 0.00 0.00 0.00 51 1009.0
20260508223023 48 5 0.0 1.0 0.00 0.00 0.00 50 1008.8
20260508221522 48 5 0.0 1.0 0.00 0.00 0.00 47 1008.8
20260508220022 49 330 0.0 3.0 0.00 0.00 0.00 47 1008.7
20260508214511 49 49 0.0 4.0 0.00 0.00 0.00 45 1008.5
20260508213015 49 65 0.0 9.0 0.00 0.00 0.00 47 1008.5
20260508211509 49 37 0.0 2.0 0.00 0.00 0.00 46 1008.5
20260508210008 49 338 0.0 1.0 0.00 0.00 0.00 47 1008.3
20260508204508 49 285 0.0 4.0 0.00 0.00 0.00 44 1008.4
20260508203012 49 5 0.0 4.0 0.00 0.00 0.00 44 1008.3
20260508201507 49 315 0.0 3.0 0.00 0.00 0.00 46 1008.2
20260508200007 48 132 1.0 6.0 0.00 0.00 0.00 45 1008.3
20260508194504 49 249 0.0 4.0 0.00 0.00 0.00 47 1008.4
20260508193003 48 14 0.0 3.0 0.00 0.00 0.00 49 1008.3
20260508191502 48 275 0.0 1.0 0.00 0.00 0.00 49 1008.3
20260508190000 48 317 0.0 5.0 0.00 0.00 0.00 48 1008.3
20260508184500 47 261 0.0 4.0 0.00 0.00 0.00 49 1008.3
20260508183105 46 217 0.0 3.0 0.00 0.00 0.00 49 1008.3
20260508181615 47 215 0.0 7.0 0.00 0.00 0.00 49 1008.3
20260508180118 47 232 0.0 5.0 0.00 0.00 0.00 50 1008.2
20260508174609 48 200 0.0 4.0 0.00 0.00 0.00 49 1007.9
20260508173058 48 49 0.0 4.0 0.00 0.00 0.00 51 1008.0
20260508171557 48 254 0.0 4.0 0.00 0.00 0.00 54 1007.9
20260508170056 47 268 0.0 3.0 0.00 0.00 0.00 57 1007.8
20260508164556 46 209 0.0 4.0 0.00 0.00 0.00 59 1008.0
20260508163050 46 330 0.0 3.0 0.00 0.00 0.00 66 1008.0
20260508161548 46 65 0.0 2.0 0.00 0.00 0.00 66 1007.9
20260508160048 43 26 0.0 0.0 0.00 0.00 0.00 75 1008.1
20260508154554 43 25 0.0 0.0 0.00 0.00 0.00 75 1008.3
20260508153045 44 244 0.0 1.0 0.00 0.00 0.00 71 1008.3
20260508151543 45 267 0.0 2.0 0.00 0.00 0.00 64 1008.0
20260508150042 46 224 0.0 3.0 0.00 0.00 0.00 64 1007.8
20260508144538 45 194 0.0 2.0 0.00 0.01 0.00 67 1007.9
20260508143037 44 197 0.0 3.0 0.00 0.01 0.00 70 1008.0
20260508141544 44 202 0.0 0.0 0.00 0.01 0.00 72 1007.9
20260508140027 43 202 0.0 4.0 0.00 0.01 0.00 71 1008.0
20260508134525 43 313 0.0 0.0 0.00 0.01 0.00 71 1008.0
20260508133022 42 313 0.0 1.0 0.00 0.01 0.00 72 1007.9
20260508131519 42 109 0.0 1.0 0.00 0.01 0.00 75 1008.0
20260508130016 41 109 0.0 0.0 0.00 0.01 0.00 77 1007.9
20260508124512 39 109 0.0 0.0 0.00 0.01 0.00 78 1008.0
20260508123008 38 108 0.0 0.0 0.00 0.01 0.00 82 1008.0
20260508121505 37 109 0.0 0.0 0.00 0.01 0.00 83 1007.9
20260508120104 36 108 0.0 0.0 0.00 0.01 0.00 86 1007.7
20260508114501 35 108 0.0 0.0 0.00 0.01 0.00 89 1007.8
20260508113100 34 108 0.0 0.0 0.00 0.01 0.00 91 1007.7
20260508111602 33 109 0.0 0.0 0.00 0.01 0.00 93 1007.6
20260508104556 31 109 0.0 0.0 0.00 0.01 0.00 93 1007.4